TA2R-16 Weather Reports


time (UTC)temp
C
wind
direction
speed
KPH
gust
KPH
rain 1hr
cm
rain 24hr
cm
rain mn
cm
humidity
%
barometer
mb
20260902220003 31 0 0.0 0.0 0.00 0.00 0.00 39 1004.9
20260902213002 31 0 0.0 0.0 0.00 0.00 0.00 39 1004.8
20260902210003 31 0 0.0 0.0 0.00 0.00 0.00 39 1004.9
20260902203002 31 0 0.0 0.0 0.00 0.00 0.00 38 1005.0
20260902200003 31 0 0.0 0.0 0.00 0.00 0.00 38 1005.3
20260902193002 32 0 0.0 0.0 0.00 0.00 0.00 37 1005.3
20260902190002 32 0 0.0 0.0 0.00 0.00 0.00 37 1005.7
20260902183002 32 0 0.0 0.0 0.00 0.00 0.00 36 1005.8
20260902180005 32 0 0.0 0.0 0.00 0.00 0.00 35 1005.8
20260902173001 33 0 0.0 0.0 0.00 0.00 0.00 35 1005.5
20260902170004 33 0 0.0 0.0 0.00 0.00 0.00 34 1005.3
20260902163002 33 0 0.0 0.0 0.00 0.00 0.00 33 1005.3
20260902160002 34 0 0.0 0.0 0.00 0.00 0.00 31 1005.4
20260902153001 35 0 0.0 0.0 0.00 0.00 0.00 30 1005.6
20260902150004 35 0 0.0 0.0 0.00 0.00 0.00 29 1005.3
20260902143002 35 0 0.0 0.0 0.00 0.00 0.00 28 1005.4
20260902140002 35 0 0.0 0.0 0.00 0.00 0.00 27 1005.4
20260902133002 36 0 0.0 0.0 0.00 0.00 0.00 26 1005.6
20260902130002 36 0 0.0 0.0 0.00 0.00 0.00 26 1005.8
20260902123002 36 0 0.0 0.0 0.00 0.00 0.00 26 1005.8
20260902120002 36 0 0.0 0.0 0.00 0.00 0.00 26 1006.1
20260902113001 35 0 0.0 0.0 0.00 0.00 0.00 29 1006.2
20260902110002 32 0 0.0 0.0 0.00 0.00 0.00 31 1006.4
20260902103002 32 0 0.0 0.0 0.00 0.00 0.00 33 1006.7
20260902100002 32 0 0.0 0.0 0.00 0.00 0.00 32 1006.8
20260902093003 33 0 0.0 0.0 0.00 0.00 0.00 30 1007.1
20260902090002 36 0 0.0 0.0 0.00 0.00 0.00 26 1007.1
20260902083002 37 0 0.0 0.0 0.00 0.00 0.00 28 1007.2
20260902080001 37 0 0.0 0.0 0.00 0.00 0.00 28 1007.2
20260902073001 38 0 0.0 0.0 0.00 0.00 0.00 26 1007.3
20260902070007 39 0 0.0 0.0 0.00 0.00 0.00 24 1007.2
20260902063002 40 0 0.0 0.0 0.00 0.00 0.00 23 1007.1
20260902060002 40 0 0.0 0.0 0.00 0.00 0.00 23 1006.9
20260902053002 40 0 0.0 0.0 0.00 0.00 0.00 22 1006.9
20260902050003 39 0 0.0 0.0 0.00 0.00 0.00 25 1006.7
20260902043001 36 0 0.0 0.0 0.00 0.00 0.00 30 1006.6
20260902040002 32 0 0.0 0.0 0.00 0.00 0.00 37 1006.5
20260902033003 31 0 0.0 0.0 0.00 0.00 0.00 39 1006.5
20260902030002 31 0 0.0 0.0 0.00 0.00 0.00 39 1006.2
20260902023002 31 0 0.0 0.0 0.00 0.00 0.00 39 1006.1
20260902020002 31 0 0.0 0.0 0.00 0.00 0.00 38 1006.0
20260902013016 31 0 0.0 0.0 0.00 0.00 0.00 38 1005.9
20260902010016 31 0 0.0 0.0 0.00 0.00 0.00 38 1006.0
20260902003002 31 0 0.0 0.0 0.00 0.00 0.00 37 1005.9
20260902000033 31 0 0.0 0.0 0.00 0.00 0.00 37 1005.7
20260901233003 31 0 0.0 0.0 0.00 0.00 0.00 37 1005.6
20260901230003 31 0 0.0 0.0 0.00 0.00 0.00 37 1005.7
20260901223005 31 0 0.0 0.0 0.00 0.00 0.00 37 1005.8